Wind_Speed
27 27 26 26 25 24 22 21 22 21 21 20 20 20 20 20 20 19 17 16 17 17 16 16 15 14 14 13 13 12 12 12 11 11 10 10 10 10 10 10 10 10 11 11 11 11 10 10 10
28 28 28 27 27 24 23 23 23 22 21 21 21 21 21 22 20 19 18 18 18 18 18 17 17 16 15 14 14 13 13 13 12 12 11 11 11 11 11 11 11 12 12 12 12 12 12 11 11
29 29 29 28 27 25 24 25 24 23 22 22 22 23 23 22 21 21 20 19 19 19 18 18 18 17 17 16 15 15 14 14 14 14 13 13 13 13 13 13 12 13 13 13 13 13 13 13 12
30 30 30 29 27 25 25 26 24 24 23 24 24 24 24 23 22 22 22 21 20 20 19 19 19 19 18 18 17 17 16 16 16 15 15 15 15 15 15 15 14 14 14 14 14 14 14 14 14
31 31 31 30 28 26 26 26 24 25 25 25 25 25 24 24 23 23 23 23 22 21 20 21 20 20 19 19 19 18 18 18 17 17 17 17 16 16 16 16 16 16 16 16 16 16 16 16 16
32 32 31 30 29 28 28 26 25 26 26 26 26 26 25 25 25 24 24 24 23 23 22 22 21 21 21 20 20 20 19 19 18 18 18 18 17 17 17 18 18 17 17 17 17 18 18 18 18
33 33 32 31 31 30 29 28 27 27 26 27 27 27 26 26 25 25 25 25 25 24 24 23 23 22 22 22 21 20 20 19 19 19 19 18 18 19 19 19 19 19 19 19 19 19 19 20 20
34 34 33 32 32 31 30 29 28 28 27 27 28 28 28 27 26 26 26 26 26 26 25 25 24 24 24 23 22 21 21 21 20 20 20 20 20 20 20 21 21 21 21 21 21 21 21 21 21
36 36 34 33 33 32 31 30 29 29 29 28 29 29 29 28 27 27 27 27 27 27 27 27 26 25 24 23 23 23 22 22 22 21 21 22 22 22 22 22 22 22 22 22 22 22 22 23 23
37 36 35 34 34 33 32 31 30 30 30 29 29 29 29 29 29 28 28 28 28 28 28 27 26 26 25 25 25 24 24 24 24 23 23 23 23 23 23 23 23 24 24 24 24 24 23 24 24
38 37 35 35 35 34 34 32 32 32 31 30 30 29 29 29 29 29 28 29 29 29 29 28 27 26 26 26 26 26 26 26 26 25 25 25 25 24 24 24 24 25 25 25 25 24 24 25 25
39 37 37 36 36 35 34 33 33 33 32 32 31 30 30 29 29 29 29 29 28 28 28 28 28 28 27 27 27 27 27 27 26 26 26 26 25 25 25 25 25 25 26 26 26 27 26 27 27
39 38 38 38 37 36 35 34 34 33 33 33 32 31 30 30 30 30 30 29 28 28 28 28 29 28 28 28 28 28 28 27 27 26 27 26 27 27 27 27 27 28 28 28 28 28 28 29 29
40 39 39 38 38 37 36 35 34 33 33 33 32 32 32 32 31 31 30 30 30 29 29 29 29 29 29 29 29 29 28 28 28 28 28 28 28 28 28 29 30 30 30 30 30 30 30 30 31
41 41 40 39 38 38 38 37 35 34 34 33 32 32 33 33 32 32 31 31 30 30 30 30 30 30 30 30 30 30 30 30 30 30 30 29 29 29 30 30 31 31 32 32 32 32 32 33 34
42 42 41 40 39 38 39 38 36 36 35 34 34 33 33 33 33 33 32 32 32 31 31 31 31 31 31 32 32 31 31 31 32 32 31 31 31 31 32 32 32 33 33 34 34 35 35 35 36
43 43 41 40 41 40 40 39 37 37 37 36 35 35 35 34 34 33 33 33 33 33 32 32 32 32 33 33 33 33 33 33 33 34 33 33 33 33 34 34 34 34 35 35 36 37 38 38 38
43 43 42 41 41 41 41 40 39 39 38 37 37 36 36 35 35 34 35 35 34 34 34 33 33 33 34 34 34 34 34 34 34 34 35 35 35 35 36 36 36 36 37 38 38 39 39 40 41
43 43 43 42 42 42 42 41 40 40 39 39 38 38 37 36 36 36 36 36 35 35 35 35 34 34 35 35 35 34 34 34 35 35 36 36 37 37 37 37 38 38 39 40 40 41 41 42 43
45 44 43 43 44 43 43 43 41 42 41 40 39 39 38 38 38 37 37 37 37 37 37 37 36 36 36 36 35 36 36 36 36 37 37 37 38 38 39 39 39 40 41 41 42 42 43 44 44
46 45 44 44 44 45 45 45 43 43 42 41 41 40 40 40 39 38 38 38 38 38 38 38 38 38 37 37 37 37 38 38 38 38 38 38 39 40 40 41 41 42 42 43 43 44 44 45 46
46 45 44 44 45 45 46 46 44 43 43 42 42 42 41 41 41 40 39 39 39 39 39 39 39 39 39 39 39 39 39 39 39 39 40 40 41 41 42 42 43 43 43 43 44 45 45 46 47
45 44 44 44 45 47 46 48 45 44 43 42 42 42 42 41 41 41 40 40 40 40 40 40 40 40 41 41 40 40 40 40 40 41 41 42 42 42 43 43 43 43 44 44 45 46 46 47 48
44 44 44 45 46 48 46 47 46 44 43 42 42 42 42 42 42 42 41 41 41 41 41 41 41 42 42 42 42 41 41 42 42 42 43 42 42 42 43 43 44 45 46 46 46 47 47 48 49
44 44 44 45 47 48 45 47 46 43 43 42 42 42 42 43 42 42 42 42 42 42 42 42 42 43 43 43 43 43 42 43 43 43 44 44 43 43 44 44 45 46 47 47 47 47 48 50 51
44 44 44 45 47 47 45 46 44 42 42 43 43 42 42 43 43 43 43 43 43 43 43 43 43 43 43 43 43 43 43 44 44 44 45 45 44 44 45 46 47 47 48 48 48 49 50 51 51
43 43 43 44 46 46 47 46 45 42 41 42 43 42 41 41 42 42 43 43 42 42 43 43 43 43 44 43 44 44 44 44 45 45 46 46 46 46 47 48 48 48 48 49 50 50 51 52 52
44 43 43 45 46 46 47 46 45 43 42 42 43 42 40 40 40 41 42 42 42 42 43 43 43 43 44 44 44 44 44 45 46 46 47 47 47 48 49 49 48 49 49 50 51 51 52 53 53
43 44 45 45 46 46 46 46 44 43 42 41 41 41 40 40 41 41 41 41 41 42 43 43 43 44 44 44 44 44 44 45 46 47 47 48 48 49 49 49 49 50 50 51 52 52 53 53 53
42 43 44 45 45 45 46 45 43 42 42 41 42 41 40 41 41 41 41 41 41 42 43 43 43 44 44 44 44 44 45 46 46 47 47 48 49 49 49 50 50 50 50 51 52 52 52 53 53
Wind_Direction
232 231 231 232 233 234 234 234 235 235 235 235 237 238 240 241 242 244 243 243 242 243 246 248 248 248 249 249 250 251 252 253 252 254 257 259 263 267 270 273 275 277 278 280 283 286 288 288 288
231 232 232 232 233 234 234 236 236 236 237 237 238 239 239 241 242 244 243 243 243 244 245 247 248 247 248 248 249 250 252 252 254 255 258 262 264 268 273 276 278 279 280 281 283 284 286 285 284
231 231 232 232 233 234 235 236 236 237 237 238 238 238 239 241 241 243 244 243 243 244 245 246 247 248 248 248 250 252 253 253 255 257 259 263 266 268 272 275 278 279 279 280 281 283 284 284 284
231 231 232 232 232 233 236 237 237 238 238 238 238 238 240 241 241 242 244 244 243 244 244 245 246 247 248 249 251 254 255 255 255 257 259 263 266 268 271 274 276 277 278 280 282 283 285 284 285
232 232 232 232 232 234 236 239 240 239 238 239 239 239 239 240 240 241 243 243 243 243 244 246 246 247 248 250 252 254 255 256 257 258 260 262 265 268 271 273 274 276 277 279 281 281 283 283 283
232 233 233 232 233 235 236 239 240 241 239 239 240 240 239 239 240 241 243 243 244 244 244 247 248 248 249 251 253 254 256 257 257 258 260 263 265 268 271 273 274 275 276 277 279 281 282 282 282
233 233 234 233 234 235 237 239 241 241 239 239 240 240 240 240 241 242 243 243 244 245 245 247 249 250 251 252 253 253 254 257 258 259 261 264 267 269 271 273 274 275 276 278 279 281 281 281 282
234 234 234 234 235 237 238 239 240 241 241 240 241 240 240 241 242 243 244 244 245 246 247 248 249 251 252 252 252 253 255 258 260 262 264 266 269 270 272 273 275 276 276 277 279 280 281 280 281
234 235 234 235 236 237 238 238 238 239 240 241 242 241 242 243 243 244 244 245 246 247 248 248 250 252 251 251 252 254 255 258 261 264 265 267 269 271 273 274 275 276 276 276 278 279 280 280 280
235 235 235 236 237 238 237 237 238 239 240 241 242 242 243 243 244 245 246 246 247 248 249 250 251 251 252 253 254 255 257 259 262 264 266 268 270 272 272 273 275 277 277 277 277 278 279 279 280
236 236 235 236 237 238 238 237 238 239 239 240 242 243 244 244 244 245 247 248 248 248 249 250 251 252 254 255 256 257 259 260 262 264 266 268 270 271 273 274 275 276 277 278 278 278 280 280 280
235 236 236 236 236 237 238 238 239 240 240 240 241 242 243 244 244 246 247 248 249 249 250 251 252 253 255 256 257 258 259 260 262 264 266 267 269 271 272 274 274 276 277 278 278 278 279 279 281
234 235 236 237 237 237 238 239 239 240 240 241 242 243 243 244 245 245 246 247 248 250 251 252 254 255 256 257 258 259 259 260 261 263 266 267 270 271 273 274 275 275 276 277 278 279 280 280 281
234 234 235 237 237 237 238 238 239 240 240 241 241 242 242 244 245 246 247 248 249 250 251 253 255 256 257 257 258 259 260 261 262 264 266 268 270 271 273 275 276 276 277 277 278 280 280 280 281
234 235 235 236 238 238 237 237 238 239 241 241 241 242 243 245 246 247 249 250 251 252 253 254 256 257 258 258 258 259 261 262 263 265 266 268 270 272 275 277 278 278 277 278 278 280 280 281 282
234 235 236 236 238 239 238 237 237 240 241 241 242 243 244 246 247 248 249 251 252 253 254 255 257 258 259 260 259 260 262 263 265 266 267 269 271 273 276 278 279 279 279 278 279 280 281 282 283
234 236 237 237 238 238 239 239 237 240 241 242 243 244 246 247 248 249 250 252 253 254 255 256 257 258 259 260 261 262 263 265 266 267 269 270 272 274 276 277 278 279 280 280 280 281 282 283 284
235 237 237 238 238 239 239 240 239 239 242 243 244 245 247 248 249 249 251 252 253 254 255 256 257 258 259 260 262 263 265 266 267 268 269 270 272 274 276 277 278 279 280 281 281 282 282 283 284
236 237 238 239 239 240 241 241 241 241 242 243 245 247 248 249 249 250 251 252 253 254 255 256 257 259 259 260 262 264 265 267 268 269 270 272 273 274 276 277 278 280 281 282 282 282 282 284 285
235 237 239 240 241 242 242 242 241 242 244 245 246 248 249 250 251 251 252 253 254 255 256 256 257 259 260 261 262 264 265 266 268 269 271 273 274 276 277 277 279 280 281 282 283 283 283 285 285
235 237 239 242 242 243 244 243 242 244 245 246 248 249 249 250 252 253 254 254 255 256 257 257 258 259 260 262 263 264 265 267 268 270 272 274 276 277 278 278 279 280 282 282 283 284 284 284 285
236 238 241 243 244 244 245 246 242 244 246 246 248 250 251 252 253 254 255 256 256 256 257 258 259 259 261 262 263 264 266 268 269 270 272 274 276 277 278 279 280 281 282 282 282 283 284 284 285
237 238 241 243 245 246 246 248 244 245 246 247 248 250 251 253 254 254 255 256 257 257 258 259 259 259 260 262 263 264 266 267 269 270 272 274 276 277 278 279 280 281 282 282 282 283 284 284 285
238 239 241 243 244 246 246 249 247 245 247 248 249 250 252 253 254 255 255 256 257 258 259 260 260 260 261 262 263 265 266 268 269 271 272 274 275 277 278 279 279 281 282 282 283 283 284 285 285
237 238 240 242 243 246 247 249 250 248 249 249 250 251 252 253 254 255 256 257 258 259 260 260 260 260 261 262 264 265 266 268 270 271 273 274 275 277 278 279 280 281 282 282 283 284 285 285 286
236 238 240 243 245 246 246 249 250 250 250 251 251 252 253 254 255 256 257 258 258 258 259 259 260 261 261 262 263 265 267 268 270 272 273 274 275 276 278 280 280 281 282 283 284 284 285 286 287
236 238 240 243 246 248 248 249 250 251 250 251 252 253 254 255 256 256 258 259 259 258 259 259 259 260 261 263 264 266 267 268 270 271 273 274 275 277 279 280 281 281 282 283 284 285 286 286 287
237 238 239 241 244 247 250 250 251 251 252 253 254 254 255 257 257 258 259 259 259 258 258 259 259 260 261 263 265 267 269 269 270 272 273 274 275 277 279 280 281 282 282 284 284 285 286 287 288
237 238 239 242 244 246 250 251 252 254 254 254 254 255 256 257 257 259 259 259 259 259 259 259 259 260 261 263 266 268 269 270 271 272 273 275 276 277 279 280 281 281 283 284 285 285 286 287 288
238 239 239 241 243 245 249 251 252 255 256 256 256 256 256 257 258 259 259 259 259 259 259 259 260 261 261 263 265 267 269 271 272 273 274 275 277 278 279 279 280 281 282 284 285 286 287 288 289
Height
5816 5818 5821 5823 5826 5828 5830 5833 5834 5836 5838 5840 5842 5844 5845 5847 5849 5852 5853 5853 5855 5856 5858 5859 5860 5861 5862 5863 5864 5865 5866 5867 5867 5868 5869 5870 5870 5871 5871 5871 5872 5872 5872 5872 5872 5872 5872 5872 5872
5812 5814 5817 5819 5821 5824 5827 5829 5830 5832 5835 5837 5839 5841 5842 5843 5845 5847 5849 5851 5852 5854 5855 5856 5858 5859 5860 5861 5862 5863 5864 5865 5866 5866 5867 5868 5868 5869 5869 5870 5870 5870 5870 5870 5870 5870 5870 5870 5870
5807 5809 5812 5815 5817 5821 5823 5824 5826 5829 5831 5834 5835 5837 5839 5841 5843 5844 5846 5848 5849 5851 5852 5854 5855 5856 5858 5859 5860 5861 5862 5863 5864 5864 5865 5866 5866 5867 5867 5868 5868 5868 5868 5868 5868 5868 5868 5868 5868
5802 5805 5808 5811 5814 5816 5818 5820 5823 5825 5827 5829 5831 5834 5835 5838 5840 5841 5843 5844 5846 5848 5849 5851 5852 5854 5855 5856 5857 5858 5859 5860 5861 5862 5863 5863 5864 5864 5865 5865 5865 5865 5866 5866 5866 5865 5865 5865 5865
5796 5799 5803 5806 5809 5812 5814 5816 5819 5820 5823 5825 5827 5830 5831 5834 5836 5838 5839 5841 5843 5845 5846 5848 5849 5850 5852 5853 5854 5855 5856 5857 5858 5859 5860 5861 5861 5862 5862 5862 5862 5863 5863 5863 5863 5863 5862 5862 5862
5792 5794 5798 5801 5804 5807 5809 5812 5814 5816 5819 5821 5823 5826 5827 5830 5832 5834 5835 5837 5839 5841 5843 5844 5846 5847 5848 5850 5851 5852 5853 5854 5855 5856 5857 5857 5858 5859 5859 5859 5859 5859 5859 5859 5859 5859 5859 5859 5859
5786 5789 5792 5796 5799 5802 5805 5807 5809 5811 5814 5816 5818 5821 5823 5825 5828 5830 5831 5833 5835 5837 5839 5841 5842 5843 5845 5846 5847 5848 5849 5850 5851 5852 5853 5854 5855 5855 5855 5855 5856 5856 5856 5856 5856 5856 5856 5855 5855
5779 5783 5786 5790 5793 5796 5799 5802 5804 5807 5809 5811 5814 5816 5818 5821 5823 5825 5827 5829 5831 5833 5835 5837 5838 5840 5841 5842 5844 5845 5846 5847 5848 5849 5849 5850 5851 5851 5851 5851 5852 5852 5852 5852 5852 5852 5851 5851 5851
5773 5778 5781 5785 5787 5791 5793 5796 5799 5801 5804 5806 5809 5812 5814 5816 5818 5820 5823 5824 5826 5828 5830 5832 5834 5835 5837 5838 5839 5841 5842 5843 5844 5845 5845 5846 5847 5847 5847 5847 5847 5847 5847 5847 5847 5847 5847 5847 5846
5766 5771 5776 5778 5781 5784 5788 5791 5794 5796 5799 5801 5804 5806 5809 5811 5813 5816 5818 5820 5822 5824 5825 5827 5829 5831 5833 5834 5835 5836 5837 5839 5839 5840 5841 5842 5842 5842 5843 5843 5843 5843 5843 5843 5843 5843 5842 5842 5842
5760 5765 5769 5771 5774 5778 5781 5785 5788 5790 5794 5797 5799 5802 5804 5806 5808 5810 5813 5815 5817 5818 5821 5823 5824 5826 5828 5829 5831 5832 5833 5834 5835 5836 5836 5837 5837 5838 5838 5838 5838 5838 5838 5838 5838 5838 5837 5837 5836
5754 5758 5761 5764 5767 5771 5775 5778 5782 5785 5788 5791 5793 5796 5798 5801 5803 5805 5807 5810 5811 5813 5815 5817 5819 5821 5823 5824 5826 5827 5828 5829 5830 5830 5831 5832 5832 5833 5833 5833 5833 5833 5833 5833 5833 5832 5832 5831 5831
5746 5751 5754 5757 5761 5765 5768 5772 5775 5779 5782 5785 5788 5790 5793 5795 5797 5800 5802 5804 5806 5808 5810 5812 5814 5816 5817 5819 5820 5821 5822 5823 5824 5825 5826 5826 5827 5827 5827 5828 5828 5827 5827 5827 5827 5826 5826 5826 5825
5739 5742 5746 5750 5754 5758 5762 5765 5769 5773 5775 5778 5782 5784 5787 5789 5792 5794 5796 5799 5801 5803 5805 5807 5808 5810 5811 5813 5814 5815 5817 5818 5819 5819 5820 5820 5821 5821 5821 5822 5821 5821 5821 5821 5821 5820 5820 5819 5819
5730 5734 5738 5743 5747 5751 5754 5759 5763 5766 5769 5772 5775 5778 5780 5783 5786 5788 5791 5793 5795 5797 5799 5801 5802 5804 5805 5807 5808 5809 5811 5812 5813 5813 5814 5814 5815 5815 5815 5815 5815 5815 5815 5814 5814 5813 5813 5812 5812
5721 5726 5731 5736 5739 5743 5748 5752 5757 5758 5762 5765 5769 5771 5774 5777 5779 5782 5785 5787 5789 5791 5793 5795 5796 5798 5799 5800 5802 5803 5804 5805 5806 5807 5808 5808 5808 5809 5809 5809 5808 5808 5807 5807 5807 5806 5805 5805 5804
5713 5718 5723 5728 5731 5735 5739 5745 5749 5751 5755 5758 5762 5765 5767 5770 5773 5776 5778 5780 5782 5784 5786 5788 5790 5791 5792 5794 5795 5796 5797 5798 5799 5800 5801 5801 5801 5801 5801 5801 5801 5800 5800 5799 5799 5798 5797 5796 5795
5707 5711 5715 5719 5723 5727 5731 5736 5741 5744 5747 5751 5754 5757 5760 5764 5767 5769 5771 5773 5775 5777 5779 5781 5782 5784 5785 5787 5788 5789 5790 5791 5792 5793 5793 5793 5794 5794 5794 5793 5793 5792 5792 5791 5790 5789 5788 5788 5786
5698 5702 5707 5711 5715 5719 5723 5728 5732 5736 5739 5743 5747 5750 5753 5756 5759 5761 5763 5766 5768 5770 5772 5774 5775 5777 5778 5779 5781 5782 5783 5784 5785 5785 5785 5786 5786 5786 5786 5785 5785 5784 5783 5782 5781 5780 5779 5778 5777
5688 5693 5698 5702 5706 5710 5714 5719 5724 5727 5731 5735 5739 5742 5745 5748 5751 5753 5756 5758 5760 5762 5764 5766 5767 5769 5771 5772 5773 5774 5775 5776 5777 5777 5777 5777 5777 5777 5777 5776 5776 5775 5774 5773 5772 5770 5769 5768 5767
5679 5685 5690 5693 5697 5700 5704 5710 5715 5719 5723 5727 5730 5733 5737 5739 5742 5745 5747 5750 5752 5754 5755 5757 5759 5761 5762 5764 5765 5766 5767 5768 5768 5769 5769 5769 5768 5768 5767 5767 5766 5765 5764 5763 5762 5760 5759 5758 5756
5671 5677 5680 5684 5687 5691 5696 5699 5707 5711 5714 5718 5722 5725 5728 5731 5734 5737 5739 5741 5743 5745 5747 5748 5750 5752 5753 5755 5756 5758 5758 5759 5760 5760 5760 5760 5759 5758 5758 5757 5756 5755 5754 5753 5751 5750 5748 5747 5745
5663 5668 5672 5675 5678 5681 5686 5689 5698 5701 5705 5710 5713 5716 5719 5722 5725 5728 5730 5732 5734 5736 5737 5739 5741 5742 5744 5745 5747 5748 5749 5750 5751 5750 5750 5750 5750 5749 5748 5747 5745 5744 5743 5742 5741 5739 5737 5735 5733
5654 5658 5662 5665 5667 5672 5678 5680 5687 5693 5697 5701 5704 5707 5710 5713 5715 5718 5721 5722 5724 5726 5728 5730 5731 5732 5734 5736 5737 5739 5740 5740 5741 5741 5740 5740 5740 5739 5737 5736 5735 5734 5732 5731 5729 5728 5726 5724 5722
5644 5649 5653 5655 5657 5663 5670 5671 5677 5684 5687 5691 5695 5698 5701 5703 5706 5708 5711 5713 5715 5716 5718 5719 5721 5722 5724 5726 5727 5728 5729 5730 5730 5730 5730 5730 5729 5728 5727 5726 5724 5723 5721 5720 5718 5716 5714 5712 5710
5635 5640 5645 5648 5651 5656 5660 5662 5670 5675 5677 5680 5684 5688 5691 5693 5696 5698 5700 5702 5704 5706 5707 5709 5711 5712 5714 5715 5717 5718 5719 5719 5720 5719 5719 5719 5718 5717 5716 5715 5713 5712 5710 5708 5706 5704 5702 5700 5697
5626 5630 5637 5639 5642 5645 5649 5654 5660 5665 5668 5671 5674 5678 5681 5683 5685 5687 5690 5692 5693 5695 5696 5698 5700 5701 5703 5705 5706 5707 5708 5708 5708 5708 5708 5707 5707 5706 5704 5703 5702 5700 5698 5696 5694 5692 5690 5687 5685
5618 5623 5626 5629 5632 5636 5641 5646 5650 5655 5658 5662 5664 5668 5671 5673 5675 5677 5679 5681 5682 5684 5685 5687 5689 5691 5693 5694 5695 5696 5697 5697 5697 5697 5696 5696 5695 5694 5693 5691 5690 5688 5686 5684 5682 5679 5677 5674 5672
5609 5613 5616 5620 5624 5629 5632 5639 5641 5645 5648 5651 5654 5657 5660 5663 5664 5666 5668 5670 5671 5672 5674 5676 5678 5680 5682 5683 5684 5685 5685 5686 5686 5685 5685 5684 5683 5682 5681 5679 5677 5676 5674 5671 5669 5666 5664 5661 5658
5599 5603 5608 5613 5616 5620 5623 5629 5632 5635 5638 5641 5644 5647 5650 5652 5654 5656 5657 5659 5660 5662 5664 5666 5668 5670 5671 5673 5673 5674 5675 5675 5674 5674 5673 5672 5671 5670 5669 5667 5665 5663 5661 5659 5656 5653 5651 5648 5645